Wind_Speed
4 5 5 5 6 6 6 7 8 8 8 9 10 10 10 10 10 10 10 10 10 10 10 10 10 10 10 11 11 11 12 12 12 12 12 11 11 11 11 11 10 10 10
6 6 7 7 8 8 8 8 9 9 10 10 11 11 11 11 11 11 11 11 11 11 11 11 11 11 11 12 12 13 13 13 13 13 13 12 12 12 11 11 11 12 12
8 8 8 8 9 9 10 10 10 10 10 11 11 12 12 12 12 12 12 12 13 12 12 12 12 12 13 13 13 14 14 14 14 14 13 13 13 13 13 13 13 13 13
10 10 10 10 11 11 12 11 11 11 11 12 13 13 13 13 14 14 14 14 14 14 14 14 14 14 14 14 14 14 15 15 15 15 14 14 14 14 14 14 14 13 13
12 12 12 13 13 13 13 13 13 13 13 14 14 15 15 15 15 15 15 15 15 15 15 15 15 15 15 15 15 15 15 16 16 16 16 15 15 15 15 14 15 15 14
14 14 14 14 14 14 14 14 15 15 16 16 16 16 16 16 16 16 16 17 17 17 17 17 17 16 16 16 16 16 16 16 17 17 17 16 16 16 16 16 16 16 16
15 15 14 14 15 15 16 16 16 16 17 17 17 17 17 18 18 18 18 18 18 18 18 18 18 18 17 17 18 18 17 17 18 19 19 18 18 18 18 18 18 18 17
15 15 15 15 16 16 16 17 17 17 17 18 19 19 19 19 19 19 19 19 20 20 20 20 19 19 19 18 19 19 19 18 19 19 19 18 18 18 19 19 19 19 19
16 16 16 16 16 17 17 17 18 18 19 19 20 20 20 20 20 21 21 21 21 20 21 21 21 20 20 20 20 20 20 20 20 20 20 19 20 20 20 21 21 21 20
16 16 17 16 18 18 18 18 19 19 19 20 21 21 22 22 22 22 22 22 22 21 21 21 21 21 21 21 21 20 21 21 21 22 21 21 21 21 22 22 22 21 21
16 17 17 17 18 19 18 19 20 21 21 21 22 23 23 23 23 23 23 23 23 22 22 22 22 22 22 21 21 22 22 22 23 23 23 22 22 22 23 23 22 22 22
17 18 18 19 20 20 19 20 21 22 22 23 23 24 24 24 25 24 24 24 24 23 23 23 23 23 23 23 23 23 24 24 24 24 23 23 24 24 24 24 24 24 24
18 19 20 20 21 21 20 21 22 22 23 24 25 25 25 26 26 25 25 24 24 24 24 24 24 24 24 24 25 25 25 25 25 25 24 25 26 25 25 25 25 26 26
19 20 20 21 22 22 22 22 23 23 23 25 25 26 26 26 26 26 25 25 25 26 27 26 25 25 26 25 26 26 26 26 26 26 26 26 27 27 27 27 26 26 26
19 20 21 22 22 23 24 24 25 25 25 25 25 26 26 27 27 27 27 27 27 27 27 27 28 27 26 26 26 26 26 26 27 27 27 26 27 27 27 27 28 27 27
19 20 21 22 23 24 25 25 26 26 26 26 27 26 26 27 28 29 29 28 28 28 28 28 28 27 26 26 26 26 26 26 27 28 28 27 27 27 27 28 29 29 29
21 21 21 22 23 23 24 25 26 27 27 28 28 28 27 28 29 30 30 30 29 28 28 27 27 27 27 26 26 26 26 26 27 28 29 29 28 28 28 29 30 30 30
22 22 22 23 24 24 25 25 26 27 28 29 29 28 28 29 30 30 30 29 28 27 27 27 27 27 28 27 27 27 28 27 27 28 29 29 29 29 29 29 29 30 30
22 23 23 24 24 25 26 27 27 28 28 28 28 29 29 30 30 30 29 28 28 28 27 27 27 28 29 29 29 29 29 29 29 29 29 29 30 29 30 31 30 31 32
22 23 25 25 26 26 26 27 28 28 29 29 28 28 28 29 30 30 29 29 29 28 28 29 29 29 30 30 29 29 29 29 29 28 29 29 29 30 30 30 30 31 32
22 23 25 26 26 26 27 26 27 28 28 28 28 28 29 29 30 30 29 29 29 29 29 29 29 29 29 29 29 29 28 28 29 29 29 29 30 30 30 30 31 30 31
22 24 25 25 26 26 26 26 27 27 27 28 28 28 29 30 29 29 29 29 29 28 28 29 29 28 28 28 28 28 28 28 28 28 28 29 30 30 30 29 30 30 30
23 24 25 25 26 26 26 26 27 27 28 28 29 29 30 29 28 28 29 29 29 28 29 28 27 28 28 28 28 28 29 28 27 28 28 29 29 30 29 29 29 30 30
23 24 24 25 25 25 26 27 27 27 28 28 29 29 29 28 29 29 29 28 28 28 28 28 27 27 27 27 27 27 28 28 28 27 28 28 29 28 27 27 28 28 29
23 24 25 24 23 24 25 26 26 26 27 28 28 28 28 28 28 28 28 28 28 28 28 27 27 27 27 27 26 26 26 27 27 28 28 28 28 27 26 26 27 27 27
23 23 23 22 23 24 25 25 25 26 27 28 28 27 27 27 28 27 28 28 28 27 27 26 26 27 27 26 26 25 26 25 26 26 26 25 25 25 25 25 25 24 24
Wind_Direction
275 272 271 270 271 274 279 282 283 285 286 286 286 288 288 288 288 289 291 291 291 292 291 291 291 290 291 292 291 290 287 283 279 276 273 271 272 272 270 267 266 266 263
268 270 275 278 276 279 282 284 284 285 286 286 287 287 287 289 289 289 290 291 290 290 289 290 291 290 290 290 290 289 286 284 280 275 271 269 269 269 267 264 265 267 264
274 273 274 281 282 282 284 285 286 287 287 287 287 287 287 289 290 290 290 290 290 289 289 290 291 291 290 289 288 287 284 283 281 276 273 269 267 267 266 263 262 264 265
276 278 277 280 283 283 286 286 287 288 289 289 289 289 290 290 291 291 290 290 289 290 290 290 291 292 290 288 286 285 283 280 278 275 274 272 270 268 265 261 261 262 263
276 275 278 281 284 284 286 286 285 284 287 289 290 292 293 292 292 292 291 291 291 291 290 291 293 292 290 288 286 285 284 281 277 274 272 272 269 267 264 261 261 261 261
277 277 279 281 283 283 284 285 286 287 287 289 290 292 293 294 293 292 292 293 293 292 292 291 291 290 289 287 286 284 283 281 278 275 271 270 268 268 267 264 263 263 261
280 277 278 279 281 283 286 287 287 289 290 291 293 294 295 294 294 293 294 293 292 292 291 291 290 288 288 286 284 283 282 281 277 276 273 270 269 269 269 267 265 264 262
281 281 281 280 283 285 287 288 288 290 292 293 294 295 295 295 295 295 296 294 293 292 291 290 289 288 287 285 284 282 281 280 277 275 273 272 270 269 269 268 266 263 262
283 286 288 285 287 287 286 288 290 291 292 293 293 294 295 295 296 297 296 294 292 291 291 290 288 287 286 285 284 283 281 279 277 276 275 274 272 271 270 270 266 263 261
288 289 290 288 290 290 289 290 291 291 292 293 292 293 294 295 295 296 297 294 292 292 292 290 288 287 286 286 285 284 282 280 278 277 276 274 273 271 270 270 267 264 262
290 292 295 295 295 295 294 293 292 292 293 294 293 292 294 294 293 293 294 294 292 291 291 290 289 288 288 286 286 286 284 281 278 276 275 275 273 271 271 269 267 263 262
288 292 295 298 296 295 295 294 295 294 293 293 293 293 294 295 296 294 294 293 292 292 293 293 292 290 287 287 287 287 285 282 278 275 274 275 274 272 271 269 266 264 262
289 292 295 296 296 295 295 295 296 296 295 296 296 296 297 296 297 297 297 296 295 294 294 293 294 292 290 289 288 287 285 283 280 277 275 274 274 272 271 269 267 265 263
288 293 295 296 298 297 295 296 297 297 298 299 298 297 299 298 297 298 299 299 297 294 294 293 293 293 291 290 288 286 284 283 280 278 276 273 273 272 271 269 267 266 264
293 294 299 299 301 301 300 300 299 298 299 300 300 300 298 298 298 298 299 296 297 297 295 294 294 293 292 291 291 287 284 283 280 278 276 275 274 273 270 267 266 266 265
296 297 300 302 303 302 301 302 301 300 298 299 299 299 299 298 298 299 297 294 294 295 295 294 293 294 293 292 292 290 287 286 284 279 276 273 273 273 271 269 267 266 266
295 297 297 298 299 301 302 303 303 303 300 300 298 298 299 298 297 298 297 296 294 293 295 295 294 294 293 292 291 290 288 286 284 282 277 275 274 273 272 270 268 266 265
292 295 297 298 297 299 300 302 303 305 304 302 299 299 300 299 298 298 297 296 295 294 293 295 294 293 293 292 290 289 287 286 285 282 279 276 274 274 273 271 268 266 265
294 296 298 300 298 297 299 302 302 303 304 304 303 301 300 300 299 298 299 297 297 295 294 294 294 293 293 292 290 289 287 286 285 283 280 276 274 274 274 271 269 268 266
294 296 297 299 299 299 300 302 302 302 303 305 304 303 303 301 300 298 297 297 296 294 293 293 293 293 292 292 290 289 289 286 285 284 281 279 277 276 274 273 271 269 267
294 296 297 299 300 301 303 303 302 302 303 303 303 304 302 302 302 298 297 297 296 294 292 292 292 291 291 292 291 289 288 286 284 282 281 280 278 276 275 273 271 270 267
296 297 296 297 299 300 300 300 301 301 302 303 302 304 305 304 303 300 302 300 299 297 292 291 292 292 292 293 292 289 287 286 286 284 282 281 280 278 275 273 271 269 268
296 297 297 295 299 300 300 300 303 302 303 302 304 305 305 305 304 302 303 304 303 300 296 294 294 294 294 294 292 289 288 287 286 285 284 284 283 280 277 275 271 269 267
296 297 298 298 299 300 302 301 303 304 305 306 306 305 306 305 304 303 303 303 303 300 297 295 295 295 295 294 292 290 289 288 285 285 285 285 283 282 279 276 272 271 269
300 301 301 299 301 303 304 305 305 306 306 308 308 307 307 306 305 304 303 303 302 301 298 295 294 294 294 294 293 292 291 289 287 288 287 285 284 282 280 277 275 273 270
299 299 301 301 302 304 305 305 306 307 307 308 309 309 308 308 306 305 305 304 302 301 299 296 294 294 295 295 294 293 293 291 290 290 289 288 286 283 280 278 276 273 273
Height
5894 5894 5894 5894 5894 5894 5893 5893 5892 5892 5892 5891 5891 5890 5890 5889 5889 5888 5887 5886 5885 5884 5884 5883 5882 5881 5880 5880 5879 5878 5878 5878 5877 5877 5877 5877 5877 5877 5877 5877 5878 5878 5879
5894 5893 5893 5893 5893 5893 5892 5892 5891 5891 5890 5890 5889 5889 5888 5888 5887 5886 5885 5884 5883 5882 5882 5881 5880 5879 5878 5878 5877 5876 5876 5875 5875 5875 5875 5875 5875 5875 5875 5875 5876 5876 5877
5893 5892 5892 5892 5892 5891 5891 5890 5890 5889 5889 5888 5888 5887 5886 5886 5885 5884 5883 5882 5881 5880 5879 5879 5878 5877 5876 5875 5875 5874 5874 5873 5873 5872 5872 5873 5873 5873 5873 5873 5873 5874 5874
5892 5892 5891 5891 5891 5890 5890 5889 5889 5888 5887 5886 5886 5885 5884 5883 5882 5881 5881 5880 5879 5878 5877 5876 5875 5874 5873 5873 5872 5871 5871 5871 5870 5870 5870 5870 5870 5871 5870 5871 5871 5872 5872
5890 5890 5890 5890 5889 5889 5888 5887 5887 5886 5885 5884 5883 5883 5882 5881 5880 5879 5878 5877 5876 5875 5874 5873 5872 5871 5871 5870 5869 5868 5868 5868 5867 5867 5867 5867 5868 5868 5868 5868 5868 5869 5869
5889 5888 5888 5887 5887 5887 5886 5885 5884 5884 5883 5882 5881 5880 5879 5878 5877 5876 5875 5874 5873 5872 5871 5870 5869 5868 5867 5867 5866 5865 5865 5864 5864 5864 5864 5864 5865 5865 5865 5865 5865 5866 5866
5887 5886 5885 5885 5884 5884 5883 5883 5882 5881 5880 5879 5878 5877 5876 5875 5874 5873 5872 5871 5870 5869 5868 5867 5866 5865 5864 5863 5863 5862 5861 5861 5861 5861 5861 5861 5861 5861 5861 5862 5862 5862 5863
5884 5884 5883 5882 5881 5881 5880 5880 5879 5878 5878 5877 5875 5874 5873 5872 5871 5870 5868 5867 5866 5865 5864 5863 5862 5861 5860 5860 5859 5858 5858 5857 5857 5857 5857 5857 5857 5857 5857 5858 5858 5858 5859
5881 5881 5880 5879 5879 5878 5877 5877 5876 5875 5874 5873 5872 5871 5870 5868 5867 5866 5865 5863 5862 5861 5860 5859 5858 5857 5857 5856 5855 5854 5854 5853 5853 5852 5853 5853 5853 5853 5853 5853 5853 5854 5855
5878 5877 5877 5877 5876 5875 5874 5873 5873 5872 5871 5870 5868 5867 5866 5864 5863 5862 5860 5859 5858 5857 5856 5855 5854 5853 5852 5851 5850 5850 5849 5849 5848 5848 5848 5848 5848 5848 5848 5848 5849 5849 5850
5875 5875 5874 5874 5873 5872 5871 5870 5869 5868 5867 5866 5864 5863 5861 5860 5859 5858 5856 5855 5854 5852 5851 5851 5850 5849 5848 5847 5846 5845 5844 5844 5844 5843 5843 5843 5843 5843 5843 5843 5843 5844 5844
5872 5872 5871 5870 5869 5868 5867 5866 5865 5864 5863 5862 5860 5858 5857 5855 5854 5853 5852 5850 5849 5848 5847 5846 5844 5844 5843 5842 5841 5840 5839 5838 5838 5837 5837 5838 5838 5838 5838 5838 5838 5838 5839
5869 5869 5868 5867 5866 5864 5863 5862 5861 5860 5859 5857 5856 5854 5852 5851 5850 5848 5847 5846 5844 5843 5842 5840 5839 5838 5837 5837 5835 5834 5833 5833 5832 5832 5832 5832 5831 5831 5832 5831 5832 5832 5833
5866 5866 5863 5863 5862 5861 5860 5858 5857 5856 5854 5853 5851 5850 5848 5847 5845 5844 5842 5841 5839 5838 5837 5835 5834 5833 5831 5830 5829 5828 5827 5826 5826 5825 5825 5825 5825 5825 5825 5825 5825 5826 5826
5863 5861 5860 5859 5858 5857 5856 5854 5853 5851 5850 5848 5846 5845 5843 5842 5840 5839 5837 5835 5834 5832 5831 5829 5828 5826 5825 5824 5822 5821 5821 5819 5819 5818 5818 5818 5818 5818 5818 5818 5818 5819 5819
5860 5859 5857 5856 5855 5853 5851 5850 5848 5846 5845 5843 5842 5840 5838 5836 5835 5833 5832 5829 5828 5826 5824 5823 5821 5820 5818 5817 5816 5815 5814 5813 5812 5811 5810 5810 5810 5810 5811 5811 5811 5812 5812
5856 5855 5854 5852 5851 5849 5847 5846 5844 5841 5840 5839 5837 5835 5833 5831 5829 5828 5826 5824 5822 5820 5818 5816 5815 5813 5812 5811 5809 5808 5807 5806 5805 5804 5803 5803 5803 5803 5803 5803 5803 5804 5805
5852 5851 5850 5848 5846 5845 5843 5841 5839 5837 5835 5833 5831 5829 5827 5825 5823 5822 5820 5818 5816 5814 5812 5810 5809 5807 5805 5803 5802 5801 5800 5799 5797 5796 5795 5795 5795 5795 5795 5795 5795 5796 5796
5849 5847 5846 5844 5842 5840 5839 5837 5835 5832 5830 5828 5826 5824 5822 5820 5818 5816 5814 5812 5810 5808 5806 5804 5803 5800 5798 5796 5795 5794 5792 5791 5789 5788 5787 5786 5786 5786 5786 5786 5786 5787 5787
5844 5842 5841 5840 5838 5836 5833 5831 5829 5827 5825 5823 5821 5818 5816 5814 5812 5809 5808 5806 5804 5802 5800 5798 5796 5794 5791 5789 5787 5786 5785 5783 5781 5780 5779 5778 5778 5778 5777 5777 5778 5778 5778
5840 5838 5837 5835 5833 5831 5828 5826 5825 5822 5820 5818 5815 5813 5810 5808 5805 5803 5801 5800 5797 5795 5793 5791 5789 5787 5784 5782 5780 5779 5777 5775 5774 5772 5771 5771 5770 5769 5769 5769 5769 5769 5769
5835 5834 5832 5830 5828 5826 5824 5822 5820 5817 5815 5812 5809 5806 5804 5802 5800 5797 5795 5793 5791 5789 5786 5784 5782 5779 5777 5775 5773 5771 5770 5769 5767 5765 5763 5762 5761 5761 5760 5760 5760 5760 5760
5830 5829 5827 5825 5823 5821 5819 5817 5815 5812 5809 5807 5804 5801 5799 5796 5794 5792 5789 5787 5784 5782 5780 5777 5775 5773 5770 5768 5766 5764 5762 5761 5759 5758 5756 5754 5753 5752 5752 5751 5751 5751 5751
5825 5824 5821 5820 5818 5817 5814 5812 5810 5807 5804 5802 5799 5796 5793 5791 5788 5786 5783 5781 5778 5776 5773 5771 5769 5766 5764 5761 5759 5757 5755 5753 5751 5750 5749 5746 5745 5744 5744 5743 5742 5743 5743
5821 5819 5817 5815 5813 5811 5809 5807 5805 5802 5799 5796 5793 5790 5787 5785 5782 5780 5777 5774 5772 5769 5767 5764 5762 5759 5757 5754 5752 5750 5748 5746 5744 5742 5741 5739 5738 5736 5736 5735 5735 5735 5735
5816 5814 5812 5810 5809 5807 5804 5802 5800 5797 5794 5791 5788 5785 5782 5779 5776 5774 5771 5768 5766 5763 5760 5758 5755 5753 5750 5748 5745 5743 5741 5739 5737 5735 5733 5732 5731 5730 5729 5728 5728 5728 5728